Regional Weather Roundup
Issued by NWS

Home | Current Version | Previous Version | Text Only | Print | Product List | Glossary Off
Versions: 1 2 3 4 5 6 7 8 9 10 11 12 13 14 15 16 17 18 19 20 21 22 23 24 25 26 27 28 29 30 31 32 33 34 35 36 37 38 39 40 41 42 43 44 45 46 47 48 49 50

443
ASUS43 KDMX 261506
RWRIA

WEATHER ROUNDUP FOR IOWA
NATIONAL WEATHER SERVICE DES MOINES IA
1000 AM CDT SAT MAY 26 2018

NOTE: "FAIR" INDICATES FEW OR NO CLOUDS BELOW 12,000 FEET WITH NO
SIGNIFICANT WEATHER AND/OR OBSTRUCTIONS TO VISIBILITY.

* - THESE STATIONS ARE NOT NWS STATIONS...THUS NOT UNDER NWS
QUALITY CONTROL.  THEY ALSO DO NOT REPORT WEATHER SUCH
AS PRECIPITATION OR FOG.

IAZ001>003-012>014-020>022-031>034-043>046-261600-
   NORTHWEST IOWA

CITY           SKY/WX    TMP DP  RH WIND       PRES   REMARKS
CARROLL *      SUNNY     90  57  33 VRB6      29.79R HX  88
CHEROKEE *     SUNNY     84  60  43 CALM      29.80S HX  84
DENISON *      SUNNY     84  66  54 CALM      29.82R HX  86
LE MARS *      SUNNY     86  55  35 VRB3      29.80S HX  84
ORANGE CITY *  SUNNY     84  57  39 NW7       29.81R HX  83
SHELDON *      SUNNY     86  55  35 NW8       29.79S HX  84
SIOUX CITY     SUNNY     84  64  50 N3        29.80S HX  85
SPENCER        SUNNY     87  59  38 W7        29.79S HX  86
STORM LAKE *   SUNNY     84  57  39 W12       29.81S HX  83
$$

IAZ055>058-069>071-079>083-090>094-261600-
   SOUTHWEST IOWA

CITY           SKY/WX    TMP DP  RH WIND       PRES   REMARKS
ATLANTIC *     SUNNY     84  64  51 CALM      29.79S HX  86
AUDUBON *      SUNNY     86  64  48 NW3       29.81S HX  87
CLARINDA *     SUNNY     84  66  54 CALM      29.81S HX  86
COUNCIL BLFS * SUNNY     82  72  69 CALM      29.80S HX  87
CRESTON *      SUNNY     84  66  54 VRB3      29.81S HX  86
HARLAN  *      SUNNY     86  63  45 CALM      29.83S HX  87
LAMONI         SUNNY     82  69  64 W5        29.80S HX  85
RED OAK *      SUNNY     84  66  54 CALM      29.79S HX  86
SHENANDOAH *   SUNNY     84  66  54 CALM      29.80S HX  86
$$

IAZ047>049-059>061-072>074-084-261600-
   CENTRAL IOWA

CITY           SKY/WX    TMP DP  RH WIND       PRES   REMARKS
AMES           SUNNY     80  69  69 VRB3      29.78S HX  83
ANKENY *       SUNNY     79  68  69 SE3       29.79S HX  81
BOONE *        SUNNY     82  66  57 CALM      29.78S HX  85
CHARITON *     SUNNY     79  68  69 S5        29.80R HX  81
DES MOINES     MOSUNNY   80  69  69 S5        29.77S HX  83
GRINNELL*      SUNNY     79  68  68 SW7       29.80S HX  81
KNOXVILLE *    SUNNY     79  68  69 SW6       29.77F HX  81
MARSHALLTOWN   SUNNY     79  71  76 SW6       29.77F HX  82
NEWTON *       SUNNY     79  68  69 SW6       29.78F HX  81
PELLA *        SUNNY     80  69  68 CALM      29.80S HX  82
PERRY *        FAIR      82  60  47 CALM      29.79R HX  83
$$

IAZ004>006-015-016-023>025-035-036-261600-
   NORTH CENTRAL IOWA

CITY           SKY/WX    TMP DP  RH WIND       PRES   REMARKS
ALGONA *       SUNNY     81  64  57 W7        29.78S HX  82
CLARION *      SUNNY     82  64  54 W8        29.78S HX  84
ESTHERVILLE    SUNNY     83  59  44 W12       29.78R HX  83
FORT DODGE *   SUNNY     84  66  54 SW3       29.79S HX  86
MASON CITY     SUNNY     81  71  71 SW7       29.78S HX  85
FOREST CITY *  FAIR      81  68  65 W3        29.78  HX  83
WEBSTER CITY * SUNNY     84  63  48 W8        29.76S HX  85
IOWA FALLS *   FAIR      80  71  73 SW6       29.80S HX  83
$$

IAZ007>011-017>019-026>030-037>042-050>054-066-261600-
   NORTHEAST IOWA

CITY           SKY/WX    TMP DP  RH WIND       PRES   REMARKS
CEDAR RAPIDS   FAIR      77  68  73 SW8       29.78R
CHARLES CITY * FAIR      75  68  78 SW5       29.79S
CLINTON *      FAIR      76  64  66 VRB5      29.81S
DECORAH *      FAIR      75  68  78 W7        29.78S
DUBUQUE        FAIR      75  66  73 SW9       29.81R
MONTICELLO *   FAIR      77  68  73 SW7G13    29.79S
OELWEIN *      FAIR      75  68  78 W7        29.79F
WATERLOO       FAIR      78  70  76 SW6       29.77S HX  80
$$

IAZ064-065-067-068-078-261600-
   EAST CENTRAL IOWA

CITY           SKY/WX    TMP DP  RH WIND       PRES   REMARKS
DAVENPORT      FAIR      78  63  59 SW8       29.82R HX  80
IOWA CITY      FAIR      79  68  69 SW8       29.80R HX  81
MT. PLEASANT * SUNNY     79  68  69 SW12      29.79S HX  81
MUSCATINE *    FAIR      81  68  65 SW12      29.78S HX  83
QUAD CITIES    FAIR      78  64  61 CALM      29.79S HX  80
$$

IAZ062-063-075>077-085>089-095>099-261600-
   SOUTHEAST IOWA

CITY           SKY/WX    TMP DP  RH WIND       PRES   REMARKS
BURLINGTON     SUNNY     80  71  74 SW12      29.79S HX  84
FAIRFIELD *    SUNNY     79  70  73 SW9       29.79S HX  81
FORT MADISON * SUNNY     79  72  78 S8        29.80S HX  82
KEOKUK *       SUNNY     79  70  73 SW9G17    29.79F HX  81
OSKALOOSA *    FAIR      79  69  72 SW8       29.79S HX  81
CENTERVILLE *    N/A     81  73  78 SW5       29.82S HX  85
OTTUMWA        SUNNY     79  71  76 S10       29.78F HX  82
WASHINGTON *   SUNNY     79  73  83 SW13      29.80S HX  82
$$

ABBREVIATIONS USED IN REMARKS
   TC - TEMPERATURES IN CELSIUS
  WCI - WIND CHILL INDEX
   HX - HEAT INDEX
  VSB - VISIBILITY
$$





USA.gov is the U.S. government's official web portal to all federal, state and local government web resources and services.